Weather reports worldwide

Advertisment
Angermünde, Germany (10291): temperature & dewpoint: 06.11.2019 06:00:00 - 12.11.2019 06:00:00 (CET)Angermünde, Germany (10291): temperature 5cm & temperature -5cm: 06.11.2019 06:00:00 - 12.11.2019 06:00:00 (CET)Angermünde, Germany (10291): temperature -20cm & temperature -100cm: 06.11.2019 06:00:00 - 12.11.2019 06:00:00 (CET)Angermünde, Germany (10291): wind speed & gusts: 06.11.2019 06:00:00 - 12.11.2019 06:00:00 (CET)Angermünde, Germany (10291): wind direction: 06.11.2019 06:00:00 - 12.11.2019 06:00:00 (CET)Angermünde, Germany (10291): reduced air pressure: 06.11.2019 06:00:00 - 12.11.2019 06:00:00 (CET)Angermünde, Germany (10291): visibility: 06.11.2019 06:00:00 - 12.11.2019 06:00:00 (CET)Angermünde, Germany (10291): sunshine duration: 06.11.2019 06:00:00 - 12.11.2019 06:00:00 (CET)Angermünde, Germany (10291): precipitation: 06.11.2019 06:00:00 - 12.11.2019 06:00:00 (CET)
Date & Time tt [°C] td [°C] tt 5cm [°C] tt -5cm [°C] tt -20cm [°C] tt -100cm [°C] ff [km/h] ff [kn] fx [km/h] fx [kn] dd ppp [hPa] vv [km] sd [min] rr [mm]
12.11.2019 06:00:00 1,7 0,2 1,6 2,3 4,3 9,9 13 7 23 12 S 1006,2 11 0 0,0
12.11.2019 05:00:00 1,9 0,0 1,6 2,2 4,3 9,9 11 6 23 12 SSE 1005,8 12 0 0,0
12.11.2019 04:00:00 1,8 0,0 1,5 2,0 4,4 9,9 16 8 23 12 S 1006,2 12 0 0,0
12.11.2019 03:00:00 1,5 -0,3 1,0 1,7 4,5 9,9 13 7 21 11 SE 1006,2 13 0 0,0
12.11.2019 02:00:00 1,3 -0,3 0,6 1,7 4,6 9,9 7 4 21 12 S 1006,7 15 0 0,0
12.11.2019 01:00:00 1,4 -0,5 0,5 1,7 4,7 9,9 15 8 24 13 SSE 1006,6 17 0 0,0
12.11.2019 00:00:00 1,9 0,0 0,8 1,8 4,9 9,9 13 7 20 11 SSE 1007,1 18 0 0,0
11.11.2019 23:00:00 2,2 0,4 1,1 2,0 5,0 9,9 10 5 20 11 SE 1007,6 15 0 0,0
11.11.2019 22:00:00 2,3 0,5 1,1 2,1 5,2 9,9 12 7 21 12 SSE 1007,9 17 0 0,0
11.11.2019 21:00:00 2,5 0,7 1,4 2,3 5,4 9,9 15 8 22 12 SE 1008,5 13 0 0,0
11.11.2019 20:00:00 2,3 0,7 0,7 2,6 5,6 10,0 10 6 24 13 S 1009,0 14 0 0,0
11.11.2019 19:00:00 3,4 1,2 2,1 2,9 5,8 10,0 16 8 25 13 SE 1008,7 16 0 0,0
11.11.2019 18:00:00 3,5 1,6 2,0 3,2 6,0 10,0 13 7 21 12 SE 1009,4 18 0 0,0
11.11.2019 17:00:00 3,6 2,0 2,3 3,7 6,2 10,0 13 7 21 11 SE 1009,9 13 0 0,0
11.11.2019 16:00:00 3,5 1,8 2,5 4,5 6,3 10,0 8 4 18 10 SE 1010,7 12 17 0,0
11.11.2019 15:00:00 3,3 1,5 2,8 5,6 6,2 10,0 10 6 21 12 SSE 1011,3 13 11 0,0
11.11.2019 14:00:00 3,4 1,8 4,1 5,7 6,1 10,0 14 8 23 12 SE 1011,8 11 1 0,0
11.11.2019 13:00:00 3,2 1,6 4,3 5,6 6,1 10,0 14 8 25 13 SSE 1012,2 9 0 0,0
11.11.2019 12:00:00 2,8 2,2 3,5 5,2 6,0 10,0 13 7 26 14 SSE 1013,0 6 0 0,0
11.11.2019 11:00:00 2,6 2,3 3,3 5,1 6,0 10,0 13 7 29 16 SSE 1013,4 1,5 0 0,0
11.11.2019 10:00:00 3,0 2,6 3,4 4,8 6,0 10,0 16 9 34 18 SSE 1013,7 1,7 0 0,0
11.11.2019 09:00:00 2,7 2,4 3,1 4,6 6,1 10,1 11 6 22 12 SSE 1014,1 0,8 0 0,0
11.11.2019 08:00:00 2,6 2,2 2,9 4,6 6,1 10,1 12 7 19 11 SSE 1014,7 0,4 0 0,0
11.11.2019 07:00:00 2,8 2,5 3,0 4,7 6,2 10,1 8 4 16 9 SSE 1014,9 0,7 0 0,0
11.11.2019 06:00:00 3,0 2,6 3,2 4,7 6,2 10,1 4 2 13 7 S 1014,9 2,2 0 0,0
11.11.2019 05:00:00 3,3 2,7 3,4 4,7 6,2 10,1 7 4 17 9 SSW 1015,3 3,4 0 0,0
11.11.2019 04:00:00 3,3 2,4 3,4 4,7 6,3 10,1 11 6 19 10 SSW 1015,4 5 0 0,0
11.11.2019 03:00:00 3,6 2,1 3,5 4,6 6,4 10,1 6 4 18 10 S 1015,6 9 0 0,0
11.11.2019 02:00:00 3,5 1,8 3,3 4,6 6,5 10,1 10 5 19 10 SSW 1015,7 9 0 0,0
11.11.2019 01:00:00 3,6 2,3 3,3 4,8 6,6 10,1 5 3 12 6 SSW 1015,8 8 0 0,0
11.11.2019 00:00:00 3,7 2,4 3,5 5,2 6,7 10,1 6 4 11 6 SW 1016,3 9 0 0,0
10.11.2019 23:00:00 3,4 2,8 3,6 5,4 6,8 10,1 5 3 9 5 W 1016,2 4,7 0 0,0
10.11.2019 22:00:00 3,3 2,9 3,5 5,5 6,8 10,2 5 3 10 5 WSW 1016,2 2,9 0 0,0
10.11.2019 21:00:00 3,1 2,8 3,3 5,5 6,9 10,2 7 4 13 7 S 1016,1 0,3 0 0,0
10.11.2019 20:00:00 3,6 3,1 3,8 5,7 7,0 10,2 7 4 14 7 WSW 1016,0 1,2 0 0,0
10.11.2019 19:00:00 4,0 3,1 4,1 5,9 7,1 10,2 4 2 10 6 SSW 1016,0 4,9 0 0,0
10.11.2019 18:00:00 4,5 2,9 4,5 6,1 7,2 10,2 6 4 10 5 W 1015,9 8 0 0,0
10.11.2019 17:00:00 4,8 3,1 4,5 6,3 7,2 10,2 4 2 14 7 SW 1015,6 10 0 0,0
10.11.2019 16:00:00 5,5 3,6 5,1 7,1 7,2 10,2 7 4 12 7 S 1015,1 12 0 0,0
10.11.2019 15:00:00 6,0 3,5 5,4 7,7 7,1 10,2 2 1 6 4 SE 1014,8 10 0 0,0
10.11.2019 14:00:00 5,8 3,5 5,9 7,8 6,9 10,2 2 1 9 5 ENE 1014,6 4,8 0 0,0
10.11.2019 13:00:00 5,4 3,6 6,2 7,7 6,6 10,2 3 2 10 5 NNW 1014,3 11 0 0,0
10.11.2019 12:00:00 5,0 3,9 5,8 7,3 6,4 10,2 3 2 7 4 N 1014,1 7 0 0,0
10.11.2019 11:00:00 4,3 3,7 5,3 6,6 6,2 10,2 3 1 9 5 W 1014,2 4,4 0 0,0
10.11.2019 10:00:00 4,1 3,9 4,8 5,4 6,1 10,2 6 4 15 8 W 1013,6 0,5 0 0,0
10.11.2019 09:00:00 3,9 3,4 4,2 4,5 6,1 10,2 8 5 11 6 WNW 1013,0 0,1 0 0,0
10.11.2019 08:00:00 3,3 2,8 0,1 3,8 6,2 10,2 3 2 10 6 SSW 1012,6 2,6 0 0,0
10.11.2019 07:00:00 3,9 3,5 3,2 4,4 6,2 10,2 5 3 13 7 SW 1012,3 3,8 0 0,0
10.11.2019 06:00:00 3,8 3,3 3,5 4,2 6,3 10,2 9 5 12 6 S 1011,8 4,6 0 0,0
10.11.2019 05:00:00 3,6 3,1 3,4 4,1 6,4 10,2 6 3 9 5 S 1011,4 3,3 0 0,0
10.11.2019 04:00:00 2,7 2,4 2,5 3,7 6,6 10,2 9 5 11 6 SSW 1010,9 0,5 0 0,0
10.11.2019 03:00:00 2,6 2,5 1,0 3,5 6,8 10,3 7 4 11 6 SSW 1010,4 1,0 0 0,0
10.11.2019 02:00:00 3,2 2,8 1,0 3,9 7,1 10,3 7 4 10 5 SSW 1010,3 3,6 0 0,0
10.11.2019 01:00:00 4,0 3,3 2,2 4,4 7,3 10,3 8 4 12 7 SW 1010,0 9 0 0,0
10.11.2019 00:00:00 4,7 3,6 3,4 5,0 7,5 10,3 9 5 19 10 SW 1009,8 13 0 0,0
09.11.2019 23:00:00 5,4 3,8 4,0 5,5 7,7 10,3 10 5 19 10 WSW 1009,4 28 0 0,0
09.11.2019 22:00:00 5,7 4,1 4,2 6,2 7,8 10,3 10 5 25 13 WSW 1009,0 35 0 0,0
09.11.2019 21:00:00 6,4 4,6 5,8 6,8 7,9 10,3 15 8 24 13 WSW 1008,6 39 0 0,0
09.11.2019 20:00:00 6,8 5,3 6,2 7,0 8,0 10,3 13 7 22 12 W 1008,1 27 0 0,0
09.11.2019 19:00:00 6,8 5,4 6,2 7,0 8,1 10,3 14 7 30 16 WSW 1007,8 18 0 0,0
09.11.2019 18:00:00 7,2 5,8 6,8 7,5 8,1 10,3 18 10 27 15 W 1007,3 15 0 0,0
09.11.2019 17:00:00 7,5 6,1 7,0 7,6 8,2 10,3 17 9 25 14 WSW 1006,6 14 0 0,0
09.11.2019 16:00:00 7,7 5,6 7,1 8,0 8,1 10,3 21 12 31 17 W 1005,9 22 0 0,0
09.11.2019 15:00:00 8,3 7,2 8,0 8,3 8,1 10,3 15 8 22 12 W 1005,1 9 0 0,0
09.11.2019 14:00:00 8,2 7,3 8,0 8,2 8,0 10,3 10 6 20 11 WSW 1005,2 6 0 0,0
09.11.2019 13:00:00 8,0 7,2 7,9 8,2 8,0 10,3 12 6 22 12 W 1004,9 4,1 0 0,0
09.11.2019 12:00:00 7,6 7,0 7,8 8,1 7,9 10,3 8 5 14 8 W 1004,7 3,0 0 0,0
09.11.2019 11:00:00 7,3 6,6 7,4 7,7 7,9 10,3 8 4 14 8 W 1005,0 2,0 0 0,0
09.11.2019 10:00:00 7,2 6,8 7,3 7,6 7,8 10,3 6 4 10 5 W 1005,2 1,9 0 0,0
09.11.2019 09:00:00 7,1 6,7 7,1 7,5 7,8 10,3 6 4 9 5 WNW 1004,8 0,4 0 0,0
09.11.2019 08:00:00 7,0 6,5 6,9 7,4 7,8 10,3 4 2 6 4 NNW 1004,7 0,6 0 0,2
09.11.2019 07:00:00 7,0 6,5 6,9 7,3 7,8 10,3 4 2 8 4 N 1004,6 1,6 0 0,0
09.11.2019 06:00:00 7,0 6,6 6,9 7,3 7,8 10,3 3 2 8 5 N 1004,6 1,6 0 0,0
09.11.2019 05:00:00 7,0 6,3 6,9 7,3 7,8 10,3 4 2 11 6 NNW 1004,5 1,7 0 0,0
09.11.2019 04:00:00 7,1 6,4 6,9 7,3 7,8 10,4 8 4 11 6 NE 1004,5 1,8 0 0,0
09.11.2019 03:00:00 7,1 6,5 7,0 7,3 7,8 10,4 8 4 13 7 NE 1004,9 2,0 0 0,0
09.11.2019 02:00:00 7,1 6,6 7,0 7,3 7,8 10,4 8 4 13 7 NNE 1005,1 1,6 0 0,0
09.11.2019 01:00:00 7,0 6,5 6,9 7,3 7,8 10,4 8 4 15 8 NNE 1005,5 1,4 0 0,1
09.11.2019 00:00:00 7,0 6,5 6,8 7,2 7,8 10,4 8 4 16 9 NNE 1005,8 2,1 0 0,5
08.11.2019 23:00:00 7,0 6,4 6,8 7,2 7,9 10,4 9 5 16 9 NE 1006,1 2,8 0 0,2
08.11.2019 22:00:00 6,9 6,4 6,7 7,1 7,9 10,4 9 5 22 12 NNE 1006,5 3,1 0 0,1
08.11.2019 21:00:00 7,0 6,2 6,7 7,1 8,0 10,4 12 7 21 11 NNE 1006,8 4,0 0 0,0
08.11.2019 20:00:00 6,9 6,0 6,4 7,0 8,1 10,4 10 5 18 10 NNE 1007,0 7 0 0,0
08.11.2019 19:00:00 7,0 6,0 6,1 7,2 8,2 10,4 8 4 13 7 NNE 1007,4 7 0 0,0
08.11.2019 18:00:00 6,9 5,6 6,0 7,5 8,3 10,4 8 5 13 7 NNE 1007,6 9 0 0,0
08.11.2019 17:00:00 7,8 6,0 7,3 8,0 8,3 10,4 9 5 19 11 NE 1007,4 13 0 0,0
08.11.2019 16:00:00 8,5 6,9 8,0 8,7 8,3 10,4 11 6 19 10 NNE 1007,3 17 0 0,0
08.11.2019 15:00:00 9,1 7,3 8,9 9,3 8,1 10,4 9 5 14 7 NE 1008,0 18 0 0,0
08.11.2019 14:00:00 9,2 6,9 9,3 9,9 7,8 10,4 8 4 13 7 NNE 1008,0 20 20 0,0
08.11.2019 13:00:00 9,2 6,1 11,6 9,9 7,5 10,5 9 5 14 8 NNE 1008,1 31 24 0,0
08.11.2019 12:00:00 8,8 6,0 11,2 9,3 7,1 10,5 6 3 11 6 NNE 1008,4 25 35 0,0
08.11.2019 11:00:00 7,8 5,9 8,2 7,8 6,8 10,5 4 2 5 3 E 1009,1 17 1 0,0
08.11.2019 10:00:00 6,4 4,7 6,7 6,3 6,7 10,5 3 2 9 5 S 1009,1 16 10 0,0
08.11.2019 09:00:00 4,5 3,5 4,5 4,9 6,8 10,5 4 2 8 4 S 1009,0 7 0 0,0
08.11.2019 08:00:00 4,1 3,4 2,7 4,4 6,9 10,5 6 3 9 5 SSE 1008,6 8 0 0,0
08.11.2019 07:00:00 4,4 3,7 2,5 4,6 7,1 10,5 6 3 11 6 SSE 1007,9 10 0 0,0
08.11.2019 06:00:00 5,1 4,1 3,5 5,0 7,2 10,5 6 4 12 6 S 1007,5 15 0 0,0
08.11.2019 05:00:00 5,3 4,1 4,3 5,3 7,3 10,5 8 4 10 5 S 1007,2 14 0 0,0
08.11.2019 04:00:00 5,5 4,2 3,7 5,5 7,4 10,5 5 3 14 8 SSE 1006,9 18 0 0,0
08.11.2019 03:00:00 6,3 4,6 5,5 6,0 7,5 10,5 11 6 19 11 S 1006,9 21 0 0,0
08.11.2019 02:00:00 6,5 4,7 6,0 6,1 7,6 10,5 11 6 19 10 SSE 1006,3 23 0 0,0
08.11.2019 01:00:00 6,0 4,5 5,6 5,7 7,7 10,5 10 5 20 11 SSE 1005,9 20 0 0,0
08.11.2019 00:00:00 6,5 4,6 5,1 6,0 7,8 10,5 11 6 18 10 SSE 1005,7 24 0 0,0
07.11.2019 23:00:00 6,7 5,0 5,6 6,2 7,9 10,5 12 7 20 11 SSE 1005,3 25 0 0,0
07.11.2019 22:00:00 7,3 5,5 6,0 6,5 8,0 10,5 11 6 21 11 SSE 1005,1 24 0 0,0
07.11.2019 21:00:00 7,4 6,0 6,0 6,5 8,2 10,5 9 5 14 8 SSE 1005,2 21 0 0,0
07.11.2019 20:00:00 7,9 6,5 6,4 6,7 8,4 10,5 6 4 14 7 SSE 1004,7 19 0 0,0
07.11.2019 19:00:00 7,6 6,7 4,9 7,4 8,4 10,5 7 4 13 7 ESE 1004,4 13 0 0,0
07.11.2019 18:00:00 8,8 7,3 7,9 8,1 8,5 10,5 7 4 14 8 ESE 1004,4 19 0 0,0
07.11.2019 17:00:00 8,7 7,5 7,8 8,3 8,5 10,5 9 5 15 8 ESE 1004,1 13 0 0,0
07.11.2019 16:00:00 9,2 7,5 8,6 8,8 8,4 10,5 6 3 13 7 SE 1004,0 14 0 0,0
07.11.2019 15:00:00 9,1 6,8 8,7 9,2 8,2 10,5 9 5 17 9 SE 1003,7 17 0 0,0
07.11.2019 14:00:00 8,8 7,1 9,1 9,1 8,0 10,5 10 6 18 10 SSE 1003,3 11 0 0,0
07.11.2019 13:00:00 7,9 6,9 8,8 8,3 7,9 10,5 8 4 17 9 SE 1003,6 6 0 0,0
07.11.2019 12:00:00 7,2 6,5 7,4 7,9 7,8 10,5 11 6 17 9 SSE 1003,9 6 0 0,0
07.11.2019 11:00:00 6,8 6,2 7,1 7,3 7,7 10,5 8 5 13 7 SE 1003,9 3,4 0 0,2
07.11.2019 10:00:00 6,4 5,8 6,5 6,9 7,7 10,5 5 3 12 6 SSE 1004,1 6 0 0,0
07.11.2019 09:00:00 6,0 5,6 6,1 6,5 7,7 10,5 7 4 11 6 SE 1004,0 4,3 0 0,0
07.11.2019 08:00:00 5,5 4,9 5,5 6,2 7,7 10,5 7 4 14 7 SE 1003,8 4,3 0 0,0
07.11.2019 07:00:00 5,5 4,8 5,2 6,1 7,8 10,5 7 4 13 7 SSE 1003,6 8 0 0,0
07.11.2019 06:00:00 5,3 4,7 4,3 6,0 8,0 10,5 5 3 11 6 S 1003,5 7 0 0,0
07.11.2019 05:00:00 5,5 4,8 4,5 6,3 8,1 10,5 5 3 13 7 S 1003,4 12 0 0,0
07.11.2019 04:00:00 5,8 4,8 5,3 6,4 8,2 10,5 6 3 13 7 SW 1003,5 12 0 0,0
07.11.2019 03:00:00 6,0 5,0 5,4 6,4 8,4 10,5 6 3 11 6 SW 1003,5 18 0 0,0
07.11.2019 02:00:00 6,0 5,2 4,8 6,5 8,6 10,5 8 5 11 6 SSW 1003,3 15 0 0,0
07.11.2019 01:00:00 6,9 5,9 5,4 7,5 8,6 10,5 7 4 13 7 WSW 1003,1 20 0 0,0
07.11.2019 00:00:00 7,3 6,4 6,9 7,8 8,7 10,5 6 4 10 5 SSW 1003,2 24 0 0,0
06.11.2019 23:00:00 7,3 6,6 7,0 7,9 8,8 10,5 4 2 8 5 SSW 1003,0 23 0 0,0
06.11.2019 22:00:00 7,4 6,7 7,1 8,0 8,8 10,5 3 2 7 4 SSW 1002,9 33 0 0,0
06.11.2019 21:00:00 7,3 6,4 6,9 8,0 8,9 10,5 4 2 6 3 SSW 1002,5 53 0 0,0
06.11.2019 20:00:00 7,2 6,2 6,9 8,1 9,0 10,5 5 3 7 4 SSW 1002,2 70 0 0,0
06.11.2019 19:00:00 7,2 6,3 6,8 8,3 9,1 10,5 3 2 5 3 SSW 1002,0 61 0 0,0
06.11.2019 18:00:00 7,4 6,1 6,8 8,5 9,2 10,5 3 2 8 4 WSW 1001,8 66 0 0,0
06.11.2019 17:00:00 7,6 6,3 7,2 8,8 9,2 10,5 6 3 14 8 NW 1001,3 70 0 0,0
06.11.2019 16:00:00 8,0 6,7 7,7 9,2 9,3 10,5 6 3 13 7 W 1000,9 75 0 0,0
06.11.2019 15:00:00 8,5 6,5 8,1 9,7 9,2 10,5 9 5 15 8 W 1000,5 73 0 0,0
06.11.2019 14:00:00 8,4 6,6 8,5 9,9 9,1 10,5 9 5 17 9 WNW 1000,0 75 0 0,0
06.11.2019 13:00:00 8,7 6,8 9,0 10,1 8,9 10,5 10 5 16 9 W 999,7 75 0 0,1
06.11.2019 12:00:00 7,9 7,0 8,4 9,6 8,8 10,5 12 7 21 12 WNW 999,4 4,3 0 0,4
06.11.2019 11:00:00 7,9 6,8 8,1 9,2 8,7 10,5 14 8 21 12 WNW 999,0 5 0 0,0
06.11.2019 10:00:00 7,6 6,7 7,7 8,6 8,6 10,5 14 7 21 11 WNW 998,7 10 0 0,0
06.11.2019 09:00:00 7,3 6,5 7,3 8,2 8,7 10,5 16 8 23 12 WNW 998,1 21 0 0,0
06.11.2019 08:00:00 7,4 6,6 7,2 8,1 8,7 10,5 15 8 24 13 WNW 997,5 32 0 0,2
06.11.2019 07:00:00 8,4 7,4 8,0 8,2 8,7 10,4 16 8 24 13 W 996,4 2,5 0 0,0
06.11.2019 06:00:00 8,4 7,5 8,0 8,2 8,7 10,4 10 6 17 9 WSW 996,2 14 0 0,0

tt = temperature
td = dewpoint
tt 5cm = temperature 5cm
tt -5cm = temperature -5cm
tt -20cm = temperature -20cm
tt -100cm = temperature -100cm
ff = wind speed
fx = gusts
dd = wind direction
ppp = reduced air pressure
vv = visibility
sd = sunshine duration
rr = precipitation

Next stations